North Windham, CT

7:17 AM EDT on August 24, 2016 (GMT -0400)
Windham

Weather History for KIJD - October, 2012

Change the Weather History Date:

Tuesday, October 2, 2012

  Actual Average Record
Temperature  
Mean Temperature 60 °F -  
Max Temperature 69 °F 66 °F 85 °F (1954)
Min Temperature 52 °F 42 °F 25 °F (1992)
Degree Days  
Heating Degree Days 4    
Growing Degree Days 10 (Base 50)    
Moisture  
Dew Point 55 °F    
Average Humidity 84    
Maximum Humidity 90    
Minimum Humidity 58    
Precipitation  
Precipitation 0.72 in - - ()
Sea Level Pressure  
Sea Level Pressure 30.03 in    
Wind  
Wind Speed 1 mph (South)    
Max Wind Speed 5 mph    
Max Gust Speed -    
Visibility 7 miles    
Events Rain    
Averages and records for this station are not official NWS values.
T = Trace of Precipitation, MM = Missing Value Source: NWS Daily Summary

Daily Weather History Graph

Daily Weather History Graph

Search for Another Location

Airport or City:

Trip Planner

Search our weather history database for the weather conditions in past years. The results will help you decide how hot, cold, wet, or windy it might be!

Date:

Astronomy

Oct. 02, 2012 Rise Set
Actual Time 6:47 AM EDT 6:27 PM EDT
Civil Twilight 6:19 AM EDT 6:55 PM EDT
Nautical Twilight 5:47 AM EDT 7:27 PM EDT
Astronomical Twilight 5:14 AM EDT 8:00 PM EDT
Moon 7:36 PM EDT (10/2) 9:14 AM EDT (10/2)
Length of Visible Light 12h 36m
Length of Day
11h 40m
Waning Gibbous, 94% of the Moon is Illuminated
Oct 2
Waning Gibbous
Oct 8
Last Quarter
Oct 15
New
Oct 21
First Quarter
Oct 29
Full

Hourly Weather History & Observations

Time (EDT) Temp. Dew Point Humidity Pressure Visibility Wind Dir Wind Speed Gust Speed Precip Events Conditions
1:52 AM 52.0 °F 48.9 °F 89% 29.98 in 10.0 mi Calm Calm - N/A   Clear
2:52 AM 52.0 °F 48.9 °F 89% 29.98 in 10.0 mi Calm Calm - N/A   Clear
3:52 AM 53.1 °F 48.9 °F 86% 29.99 in 10.0 mi Calm Calm - N/A   Overcast
4:52 AM 53.1 °F 50.0 °F 89% 29.99 in 10.0 mi Calm Calm - N/A   Overcast
5:52 AM 54.0 °F 50.0 °F 86% 30.01 in 10.0 mi Calm Calm - N/A   Mostly Cloudy
6:52 AM 53.1 °F 50.0 °F 89% 30.04 in 10.0 mi Calm Calm - N/A   Partly Cloudy
7:52 AM 55.0 °F 51.1 °F 86% 30.04 in 10.0 mi Calm Calm - N/A   Scattered Clouds
9:52 AM 61.0 °F 53.1 °F 75% 30.06 in 10.0 mi Calm Calm - N/A   Mostly Cloudy
10:52 AM 64.0 °F 55.0 °F 73% 30.05 in 10.0 mi Calm Calm - N/A   Overcast
11:52 AM 68.0 °F 55.0 °F 63% 30.04 in 10.0 mi Calm Calm - N/A   Mostly Cloudy
12:52 PM 69.1 °F 54.0 °F 58% 30.03 in 10.0 mi South 4.6 mph - N/A   Mostly Cloudy
1:52 PM 64.9 °F 55.9 °F 73% 30.04 in 10.0 mi SSW 4.6 mph - 0.01 in Rain Light Rain
2:33 PM 62.6 °F 57.2 °F 82% 30.06 in 2.5 mi Calm Calm - 0.09 in Rain Rain
3:52 PM 61.0 °F 57.0 °F 87% 30.05 in 3.0 mi SSE 4.6 mph - 0.10 in Rain Rain
4:37 PM 60.8 °F 55.4 °F 82% 30.02 in 1.8 mi Variable 4.6 mph - 0.10 in Rain Heavy Rain
4:52 PM 60.1 °F 55.9 °F 86% 30.04 in 1.8 mi SW 4.6 mph - 0.17 in Rain Heavy Rain
5:11 PM 60.8 °F 57.2 °F 88% 30.03 in 0.8 mi Calm Calm - 0.18 in Rain Heavy Rain
5:18 PM 60.8 °F 57.2 °F 88% 30.03 in 1.2 mi Calm Calm - 0.22 in Rain Heavy Rain
5:44 PM 60.8 °F 57.2 °F 88% 30.03 in 2.5 mi Calm Calm - 0.34 in Rain Heavy Rain
5:52 PM 60.1 °F 57.0 °F 90% 30.04 in 3.0 mi South 3.5 mph - 0.34 in Rain Light Rain
6:52 PM 60.1 °F 57.0 °F 90% 30.04 in 9.0 mi North 3.5 mph - 0.03 in Rain Light Rain
7:44 PM 60.8 °F 57.2 °F 88% 30.03 in 5.0 mi Calm Calm - 0.02 in Rain Light Rain
7:52 PM 60.1 °F 57.0 °F 90% 30.04 in 5.0 mi Calm Calm - 0.03 in Rain Light Rain
8:52 PM 60.1 °F 57.0 °F 90% 30.04 in 8.0 mi Calm Calm - 0.03 in Rain Light Rain
10:52 PM 61.0 °F 57.9 °F 90% 30.04 in 5.0 mi Calm Calm - 0.00 in Rain Light Rain
11:24 PM 60.8 °F 57.2 °F 88% 30.04 in 6.0 mi Calm Calm - 0.00 in   Overcast
11:52 PM 61.0 °F 57.9 °F 90% 30.04 in 5.0 mi North 3.5 mph - 0.01 in Rain Light Rain